TimeCST,TemperatureF,Dew PointF,Humidity,Sea Level PressureIn,VisibilityMPH,Wind Direction,Wind SpeedMPH,Gust SpeedMPH,PrecipitationIn,Events,Conditions,WindDirDegrees,DateUTC
12:35 PM,59.0,37.4,45,30.14,10.0,South,13.8,-,N/A,,Clear,190,2012-11-30 18:35:00
12:55 PM,60.8,39.2,45,30.13,10.0,SSW,12.7,17.3,N/A,,Clear,210,2012-11-30 18:55:00
1:15 PM,60.8,39.2,45,30.13,10.0,South,12.7,-,N/A,,Clear,190,2012-11-30 19:15:00
1:35 PM,60.8,39.2,45,30.13,10.0,South,13.8,-,N/A,,Clear,180,2012-11-30 19:35:00
1:55 PM,60.8,39.2,45,30.12,10.0,SSW,15.0,-,N/A,,Clear,200,2012-11-30 19:55:00
2:15 PM,60.8,41.0,48,30.11,10.0,SSW,11.5,-,N/A,,Clear,200,2012-11-30 20:15:00
2:35 PM,60.8,39.2,45,30.11,10.0,SSW,13.8,-,N/A,,Clear,210,2012-11-30 20:35:00
2:55 PM,60.8,41.0,48,30.11,10.0,SSW,12.7,-,N/A,,Clear,210,2012-11-30 20:55:00
3:15 PM,60.8,41.0,48,30.12,10.0,SSW,9.2,-,N/A,,Clear,200,2012-11-30 21:15:00
3:35 PM,59.0,41.0,51,30.12,10.0,SSW,10.4,-,N/A,,Clear,200,2012-11-30 21:35:00
3:55 PM,57.2,41.0,55,30.12,10.0,SSW,9.2,-,N/A,,Clear,200,2012-11-30 21:55:00
4:35 PM,55.4,41.0,58,30.12,10.0,South,9.2,-,N/A,,Clear,190,2012-11-30 22:35:00
5:15 PM,51.8,39.2,62,30.13,10.0,SSW,8.1,-,N/A,,Clear,200,2012-11-30 23:15:00
5:35 PM,51.8,41.0,67,30.14,10.0,SSW,4.6,-,N/A,,Clear,210,2012-11-30 23:35:00
5:55 PM,51.8,39.2,62,30.14,10.0,SSW,3.5,-,N/A,,Clear,200,2012-11-30 23:55:00
6:35 PM,46.4,39.2,76,30.16,10.0,SSW,3.5,-,N/A,,Clear,200,2012-12-01 00:35:00
6:55 PM,48.2,39.2,71,30.16,10.0,SSW,3.5,-,N/A,,Clear,210,2012-12-01 00:55:00
7:15 PM,44.6,37.4,76,30.15,10.0,Calm,Calm,-,N/A,,Clear,0,2012-12-01 01:15:00
7:35 PM,44.6,39.2,81,30.16,10.0,Calm,Calm,-,N/A,,Clear,0,2012-12-01 01:35:00
8:15 PM,46.4,39.2,76,30.15,10.0,South,3.5,-,N/A,,Clear,170,2012-12-01 02:15:00
8:35 PM,46.4,39.2,76,30.15,10.0,South,3.5,-,N/A,,Clear,170,2012-12-01 02:35:00
8:55 PM,46.4,41.0,81,30.16,10.0,South,3.5,-,N/A,,Clear,170,2012-12-01 02:55:00
9:15 PM,44.6,39.2,81,30.16,10.0,Calm,Calm,-,N/A,,Clear,0,2012-12-01 03:15:00
9:35 PM,46.4,39.2,76,30.16,10.0,South,3.5,-,N/A,,Clear,180,2012-12-01 03:35:00
9:55 PM,46.4,41.0,81,30.16,10.0,Calm,Calm,-,N/A,,Clear,0,2012-12-01 03:55:00
10:15 PM,42.8,35.6,76,30.16,10.0,Calm,Calm,-,N/A,,Clear,0,2012-12-01 04:15:00
10:35 PM,42.8,37.4,81,30.16,10.0,Calm,Calm,-,N/A,,Clear,0,2012-12-01 04:35:00
10:55 PM,39.2,33.8,81,30.16,9.0,Calm,Calm,-,N/A,,Clear,0,2012-12-01 04:55:00
11:15 PM,39.2,35.6,87,30.16,9.0,Calm,Calm,-,N/A,,Clear,0,2012-12-01 05:15:00
11:35 PM,39.2,35.6,87,30.16,9.0,Calm,Calm,-,N/A,,Clear,0,2012-12-01 05:35:00
11:55 PM,41.0,37.4,87,30.16,10.0,Calm,Calm,-,N/A,,Clear,0,2012-12-01 05:55:00